sat.trackr.live / text

‹ back to catalog

STARLINK-35166

NORAD 65499 · 2025-198H

PAYLOAD ACTIVE UNKNOWN

§ Identity

Operator
Country
US
Launch date
2025-09-05
Launch site
AFETR
Launch vehicle
Mass (kg)
RCS (m²)

Purposes: comms

External: N2YO · Heavens-Above · Gunter

§ Orbital elements

Epoch: 2026-09-20T05:44:41.108352Z

Period
93.85 min
Inclination
53.1588°
Eccentricity
0.0001501
Mean motion
15.34397031 rev/d
Perigee alt
461.7 km
Apogee alt
463.7 km
Semi-major
6,840.8 km
B*
4.5952e-4
RAAN
84.6972°
Arg perigee
96.2543°
Mean anomaly
263.8631°
Rev number
5,844

§ Raw data

STARLINK-351661 65499U 25198H   26263.23936468  .00015180  00000+0  45952-3 0  99902 65499  53.1588  84.6972 0001501  96.2543 263.8631 15.34397031 58443

JSON: /api/v1/satellites/65499 · /tle

For live sub-satellite position, see the globe view (requires WebGL).

§ Visibility from observer

Set your observer location to see the next 7 days of passes ≥ 10°. The values pass through the URL so the page stays shareable.

No JS? Fill the form by hand. The geolocation button needs JavaScript.